Airport METAR Information

LTBA 151250Z 14008KT 100V190 9999 FEW040 BKN080 15/08 Q1019 NOSIG

VATSIM Livefeed

Card image cap

ATC Bookings

No position booked

Card image cap

Active ATC

No controllers online

Blog

Read our latest news and get to know us better.